[[{"header":{"parameterUnit":"m.s-1","parameterCategory":1,"la1":30.2991,"la2":30.254,"lo1":-89.0895,"lo2":-89.0444,"dy":0.0017,"dx":0.0017,"nx":28,"ny":28,"refTime":"2024-12-22T09:00:00:Z","depth":0,"parameterNumber":2,"parameterNumberName":"U-component_of_WINDS"},"data":[0,0,0,0,0,0,0,0,0,0,0,0,0,0,0,0,0,0,0,0,0,0,0,0,0,0,0,0,0,0,0,0,0,0,0,0,0,0,0,0,0,0,0,0,0,0,0,0,0,0,0,0,0,0,0,0,0,0,-3.2836,-3.2837,0,-3.2941,-3.2942,-3.2943,-3.2861,-3.2858,-3.2854,-3.2851,-3.2962,-3.2968,-3.2974,0,0,0,0,0,0,0,0,0,0,0,0,0,-3.2567,-3.2572,-3.2836,-3.2837,-3.2839,-3.2941,-3.2942,-3.2944,-3.2862,-3.2858,-3.2853,-3.2849,-3.296,-3.2967,-3.2974,0,0,0,0,0,0,0,0,0,0,0,0,0,-3.2679,-3.2574,-3.2836,-3.281,-3.2809,-3.2941,-3.2942,-3.2944,-3.2863,-3.2858,-3.2852,-3.2847,-3.2957,-3.2966,-3.2975,-3.3139,0,0,-3.3004,-3.3008,0,0,0,0,0,0,0,0,-3.2673,-3.2689,-3.2813,-3.2812,-3.2811,-3.2883,-3.2888,-3.301,-3.2864,-3.2843,-3.2851,-3.2845,-3.294,-3.295,-3.2982,-3.3144,-3.3149,-3.3005,-3.301,-3.3015,-3.3017,0,0,0,0,0,0,0,-3.2665,-3.2684,-3.2878,-3.2814,-3.2813,-3.2794,-3.2804,-3.2911,-3.292,-3.2844,-3.2838,-3.2852,-3.2938,-3.2973,-3.2984,-3.3151,-3.3005,-3.3013,-3.3019,-3.3022,-3.3453,-3.3458,0,0,0,0,0,0,-3.266,-3.2678,-3.2874,-3.2881,-3.2727,-3.2803,-3.2814,-3.2865,-3.2918,-3.2921,-3.2856,-3.2847,-3.2959,-3.2973,-3.2987,-3.3183,-3.3014,-3.3023,-3.3029,-3.3447,-3.3454,-3.346,0,0,0,0,0,0,-3.2654,-3.2678,-3.287,-3.2778,-3.2801,-3.2813,-3.2871,-3.287,-3.2904,-3.2927,-3.2929,-3.289,-3.2956,-3.2974,-3.3102,-3.3185,-3.3027,-3.3036,-3.344,-3.3449,-3.3457,-3.3575,0,0,0,0,0,0,-3.2647,-3.2676,-3.2738,-3.278,-3.2806,-3.2983,-3.2876,-3.2876,-3.292,-3.291,-3.2959,-3.2962,-3.2953,-3.3088,-3.3111,-3.3195,-3.3043,-3.3433,-3.3444,-3.3455,-3.3563,-3.3586,-3.3606,0,0,0,0,0,-3.2637,-3.2768,-3.2742,-3.2766,-3.2884,-3.2987,-3.3003,-3.2989,-3.2927,-3.299,-3.3005,-3.2961,-3.3172,-3.3102,-3.3127,-3.3215,-3.3428,-3.3441,-3.3454,-3.3554,-3.3582,-3.3605,0,0,0,0,0,0,-3.2737,-3.2773,-3.2744,-3.2892,-3.2937,-3.2973,-3.3052,-3.3019,-3.3083,-3.3071,-3.3051,-3.3063,-3.3198,-3.3219,-3.314,-3.3377,-3.329,-3.3309,-3.3358,-3.3385,-3.3405,-3.3398,-3.3051,0,0,0,0,0,-3.2776,-3.2856,-3.2883,-3.3011,-3.3035,-3.304,-3.3085,-3.307,-3.3116,-3.3135,-3.3159,-3.3207,-3.3284,-3.3335,-3.3407,-3.3566,-3.3576,-3.3639,-3.366,-3.3677,-3.3694,-3.378,-3.3808,-3.3504,-3.3503,-3.3503,0,0,-3.2857,-3.2887,-3.2939,-3.3032,-3.3065,-3.315,-3.3057,-3.315,-3.3213,-3.315,-3.3272,-3.3291,-3.3343,-3.3487,-3.3551,-3.3509,-3.378,-3.3694,-3.3708,-3.3715,-3.3796,-3.3825,-3.3851,-3.3512,-3.3511,-3.3509,0,0,-3.3049,-3.308,-3.3189,-3.3224,-3.3275,-3.3277,-3.3304,-3.3345,-3.3355,-3.3477,-3.3431,-3.3506,-3.3639,-3.3678,-3.3715,-3.3921,-3.3883,-3.3945,-3.4057,-3.414,-3.4165,-3.4186,-3.426,-3.4287,-3.3961,-3.3962,-3.3962,0,-3.3145,-3.3269,-3.325,-3.3347,-3.3389,-3.3334,-3.3446,-3.3481,-3.3554,-3.3585,-3.3535,-3.3701,-3.3732,-3.3884,-3.3935,-3.3966,-3.3996,-3.394,-3.4162,-3.4184,-3.4203,-3.4274,-3.4302,-3.3969,-3.3968,-3.3967,-3.3967,0,-3.3384,-3.3472,-3.3554,-3.3625,-3.3676,-3.378,-3.3777,-3.3831,-3.3812,-3.382,-3.3944,-3.3979,-3.4058,-3.4093,-3.4075,-3.4243,-3.4215,-3.4165,-3.4078,-3.424,-3.4306,-3.4333,-3.3979,-3.3977,-3.3975,-3.3973,0,0,-3.3643,-3.3701,-3.3732,-3.3763,-3.3815,-3.3882,-3.3983,-3.4059,-3.4106,-3.4158,-3.4243,-3.4357,-3.431,-3.4353,-3.4339,-3.4412,-3.4574,-3.4353,-3.4354,-3.4393,-3.4762,-3.48,-3.4831,-3.4548,-3.4553,-3.4557,-3.4757,0,-3.3838,-3.4014,-3.3999,-3.4165,-3.4246,-3.4195,-3.4283,-3.4325,-3.4334,-3.4405,-3.4415,-3.4497,-3.4429,-3.4454,-3.4524,-3.4539,-3.4648,-3.4524,-3.4628,-3.4632,-3.4618,-3.4866,-3.4906,-3.5093,-3.4783,-3.4787,-3.479,0,-3.409,-3.4149,-3.4323,-3.4362,-3.4396,-3.4475,-3.4543,-3.4611,-3.4657,-3.4659,-3.4706,-3.468,-3.4782,-3.4692,-3.4834,-3.4751,-3.4792,-3.4806,-3.4813,-3.4823,-3.4722,-3.4883,-3.5153,-3.5181,-3.4831,-3.4828,-3.4825,0,-3.4262,-3.4385,-3.4505,-3.4534,-3.4582,-3.4639,-3.4663,-3.4704,-3.475,-3.481,-3.484,-3.4911,-3.495,-3.5006,-3.5,-3.4935,-3.5145,-3.5054,-3.515,-3.5151,-3.5198,-3.5195,-3.5478,-3.5223,-3.5223,-3.5222,-3.5222,0,-3.4482,-3.4591,-3.4583,-3.4658,-3.4778,-3.476,-3.488,-3.4896,-3.4933,-3.501,-3.497,-3.5044,-3.503,-3.5104,-3.51,-3.5218,-3.5236,-3.5241,-3.5239,-3.5245,-3.5245,-3.5273,-3.526,-3.523,-3.5228,-3.5226,-3.5225,0,-3.4695,-3.4694,-3.4822,-3.4857,-3.4869,-3.4956,-3.4986,-3.5057,-3.5062,-3.516,-3.5182,-3.5192,-3.5277,-3.5275,-3.5372,-3.5369,-3.5514,-3.5497,-3.5499,-3.5495,-3.5592,-3.5583,-3.5904,-3.5946,-3.5663,-3.5666,-3.5668,0,-3.4836,-3.4918,-3.4962,-3.501,-3.5036,-3.5115,-3.5161,-3.5147,-3.5197,-3.5256,-3.532,-3.54,-3.5463,-3.5601,-3.5617,-3.5691,-3.5675,-3.5782,-3.5686,-3.569,-3.5678,-3.5673,-3.5682,-3.5802,-3.5805,-3.5807,-3.581,0,-3.5086,-3.5082,-3.515,-3.5219,-3.5275,-3.5328,-3.5378,-3.5419,-3.541,-3.5469,-3.5554,-3.5603,-3.5701,-3.5782,-3.5852,-3.5877,-3.5843,-3.5839,-3.5866,-3.5874,-3.5872,-3.5875,-3.5551,-3.5833,-3.583,-3.5829,-3.5827,-3.5826,-3.5268,-3.5339,-3.5381,-3.5458,-3.5493,-3.554,-3.5607,-3.5621,-3.5691,-3.5769,-3.5756,-3.5852,-3.5896,-3.5987,-3.6018,-3.6093,-3.6055,-3.6093,-3.6103,-3.6113,-3.6124,-3.5859,-3.6106,-3.6105,-3.6104,-3.6104,-3.6103,0,-3.5517,-3.5541,-3.5612,-3.5682,-3.5743,-3.5703,-3.5755,-3.5809,-3.5893,-3.5937,-3.6,-3.6098,-3.6176,-3.6198,-3.6273,-3.6329,-3.6315,-3.6349,-3.6346,-3.6352,-3.6153,-3.6123,-3.6359,-3.6359,-3.6359,-3.6359,-3.6359,-3.6359,-3.5654,-3.5772,-3.5772,-3.5907,-3.593,-3.6022,-3.6055,-3.6098,-3.6133,-3.6244,-3.6308,-3.6321,-3.6356,-3.6434,-3.6503,-3.6508,-3.6538,-3.6579,-3.6577,-3.6391,-3.6366,-3.6341,-3.6313,-3.6585,-3.6586,-3.677,-3.6772,-3.6773]},{"header":{"parameterUnit":"m.s-1","parameterCategory":1,"la1":30.2991,"la2":30.254,"lo1":-89.0895,"lo2":-89.0444,"dy":0.0017,"dx":0.0017,"nx":28,"ny":28,"refTime":"2024-12-22T09:00:00:Z","depth":0,"parameterNumber":3,"parameterNumberName":"V-component_of_WINDS"},"data":[0,0,0,0,0,0,0,0,0,0,0,0,0,0,0,0,0,0,0,0,0,0,0,0,0,0,0,0,0,0,0,0,0,0,0,0,0,0,0,0,0,0,0,0,0,0,0,0,0,0,0,0,0,0,0,0,0,0,-2.2466,-2.2465,0,-2.2442,-2.2441,-2.2441,-2.2395,-2.2394,-2.2393,-2.2392,-2.2367,-2.2367,-2.2367,0,0,0,0,0,0,0,0,0,0,0,0,0,-2.247,-2.2471,-2.2466,-2.2465,-2.2465,-2.2442,-2.2441,-2.2441,-2.2395,-2.2394,-2.2393,-2.2391,-2.2367,-2.2367,-2.2367,0,0,0,0,0,0,0,0,0,0,0,0,0,-2.246,-2.2471,-2.2466,-2.2439,-2.2437,-2.2442,-2.2441,-2.2441,-2.2395,-2.2394,-2.2392,-2.2391,-2.2367,-2.2367,-2.2367,-2.2396,0,0,-2.2368,-2.2368,0,0,0,0,0,0,0,0,-2.246,-2.2459,-2.2443,-2.2441,-2.2438,-2.242,-2.2434,-2.2426,-2.2395,-2.2411,-2.2392,-2.239,-2.2386,-2.2384,-2.2383,-2.2395,-2.2394,-2.2368,-2.2368,-2.2368,-2.2368,0,0,0,0,0,0,0,-2.2461,-2.246,-2.2456,-2.2443,-2.244,-2.2428,-2.2425,-2.2432,-2.2406,-2.2409,-2.2406,-2.2404,-2.2384,-2.2382,-2.2382,-2.2394,-2.2368,-2.2368,-2.2369,-2.2369,-2.2426,-2.2427,0,0,0,0,0,0,-2.2466,-2.2461,-2.2457,-2.2455,-2.2446,-2.2429,-2.2426,-2.2427,-2.2406,-2.2401,-2.2405,-2.2402,-2.2383,-2.2381,-2.2381,-2.2411,-2.2368,-2.2369,-2.2369,-2.2425,-2.2426,-2.2428,0,0,0,0,0,0,-2.2466,-2.2466,-2.2458,-2.2457,-2.2455,-2.243,-2.2432,-2.2427,-2.2426,-2.2402,-2.2398,-2.2408,-2.2382,-2.238,-2.2392,-2.241,-2.2369,-2.2369,-2.2423,-2.2425,-2.2427,-2.2474,0,0,0,0,0,0,-2.2466,-2.2466,-2.2477,-2.2458,-2.2456,-2.247,-2.2433,-2.2428,-2.2426,-2.2422,-2.2404,-2.24,-2.238,-2.2392,-2.2392,-2.2409,-2.2369,-2.2421,-2.2424,-2.2426,-2.2471,-2.2477,-2.2483,0,0,0,0,0,-2.2467,-2.2492,-2.2478,-2.2478,-2.2469,-2.2472,-2.247,-2.2447,-2.2428,-2.2439,-2.2423,-2.2401,-2.2408,-2.2394,-2.2394,-2.2411,-2.242,-2.2423,-2.2426,-2.2468,-2.2476,-2.2483,0,0,0,0,0,0,-2.2515,-2.2489,-2.2473,-2.2493,-2.2485,-2.2464,-2.2476,-2.2457,-2.2453,-2.2449,-2.242,-2.2417,-2.2432,-2.2423,-2.2407,-2.2437,-2.241,-2.2414,-2.2442,-2.245,-2.2456,-2.2457,-2.2369,0,0,0,0,0,-2.2528,-2.2532,-2.2509,-2.2529,-2.2526,-2.2502,-2.2502,-2.2485,-2.2475,-2.2471,-2.2457,-2.2448,-2.2448,-2.2448,-2.2447,-2.2469,-2.2464,-2.2481,-2.2488,-2.2493,-2.2495,-2.2505,-2.2511,-2.2438,-2.2438,-2.2438,0,0,-2.2554,-2.2541,-2.2546,-2.2538,-2.253,-2.2534,-2.2499,-2.2506,-2.2509,-2.2472,-2.2482,-2.2471,-2.2459,-2.2476,-2.2482,-2.2468,-2.2515,-2.2497,-2.2501,-2.2501,-2.2508,-2.2515,-2.2522,-2.244,-2.2439,-2.2439,0,0,-2.2605,-2.2596,-2.261,-2.2602,-2.2589,-2.2573,-2.2577,-2.2558,-2.2549,-2.2559,-2.2531,-2.2533,-2.2535,-2.2526,-2.2523,-2.2568,-2.2547,-2.2569,-2.2601,-2.261,-2.2616,-2.2621,-2.2635,-2.2641,-2.2572,-2.2572,-2.2572,0,-2.2639,-2.2645,-2.262,-2.2628,-2.2625,-2.2592,-2.2605,-2.2599,-2.2587,-2.2585,-2.257,-2.2569,-2.2559,-2.2572,-2.2583,-2.2581,-2.2583,-2.257,-2.2617,-2.2622,-2.2626,-2.264,-2.2645,-2.2575,-2.2574,-2.2574,-2.2574,0,-2.2688,-2.2692,-2.2705,-2.2693,-2.2692,-2.2703,-2.2679,-2.268,-2.2663,-2.2648,-2.2657,-2.2643,-2.2638,-2.264,-2.2623,-2.265,-2.2642,-2.2622,-2.2595,-2.2636,-2.2648,-2.2654,-2.2579,-2.2578,-2.2577,-2.2576,0,0,-2.2768,-2.2741,-2.2746,-2.274,-2.2723,-2.2725,-2.2734,-2.2728,-2.2729,-2.2722,-2.2727,-2.2728,-2.271,-2.2705,-2.2687,-2.2696,-2.273,-2.2675,-2.2674,-2.2684,-2.2757,-2.2771,-2.2778,-2.2716,-2.2717,-2.2718,-2.2758,0,-2.2813,-2.2827,-2.2804,-2.2822,-2.2825,-2.2793,-2.28,-2.279,-2.2776,-2.2776,-2.2761,-2.2761,-2.2738,-2.2734,-2.2741,-2.2725,-2.2745,-2.2722,-2.272,-2.272,-2.2723,-2.2784,-2.2799,-2.2837,-2.2763,-2.2763,-2.2764,0,-2.2869,-2.2863,-2.2881,-2.2861,-2.2862,-2.2869,-2.2861,-2.2862,-2.2849,-2.2838,-2.2833,-2.2811,-2.2817,-2.2792,-2.2799,-2.2784,-2.2782,-2.2773,-2.2774,-2.2772,-2.2744,-2.2783,-2.2849,-2.2854,-2.2772,-2.2771,-2.277,0,-2.2923,-2.292,-2.293,-2.2926,-2.2903,-2.2909,-2.29,-2.2886,-2.2883,-2.2876,-2.2874,-2.2868,-2.2865,-2.286,-2.2837,-2.2821,-2.2847,-2.2819,-2.2837,-2.2837,-2.2843,-2.2843,-2.2909,-2.2844,-2.2844,-2.2844,-2.2844,0,-2.2975,-2.2988,-2.2954,-2.296,-2.2973,-2.2946,-2.2958,-2.2946,-2.2934,-2.2936,-2.2909,-2.2911,-2.2881,-2.2881,-2.2863,-2.2871,-2.287,-2.286,-2.2855,-2.2862,-2.2863,-2.2859,-2.2856,-2.2845,-2.2845,-2.2845,-2.2844,0,-2.3038,-2.3016,-2.3025,-2.3003,-2.2997,-2.3007,-2.2987,-2.2992,-2.2976,-2.2979,-2.2979,-2.2954,-2.2951,-2.2928,-2.2921,-2.2909,-2.2922,-2.2913,-2.2927,-2.2923,-2.2941,-2.2939,-2.3006,-2.3013,-2.2945,-2.2946,-2.2947,0,-2.3072,-2.3081,-2.3059,-2.3058,-2.305,-2.305,-2.3047,-2.3021,-2.3019,-2.3004,-2.301,-2.3006,-2.3,-2.2998,-2.2978,-2.2972,-2.2961,-2.2985,-2.296,-2.2966,-2.296,-2.2959,-2.2959,-2.299,-2.2991,-2.2992,-2.2993,0,-2.3134,-2.3123,-2.312,-2.3113,-2.311,-2.3103,-2.3094,-2.3096,-2.3066,-2.3065,-2.3062,-2.3058,-2.305,-2.3045,-2.3036,-2.3025,-2.3004,-2.3001,-2.3004,-2.301,-2.3017,-2.3012,-2.294,-2.2999,-2.2998,-2.2998,-2.2998,-2.2997,-2.3183,-2.3188,-2.3173,-2.317,-2.3161,-2.3153,-2.3155,-2.3139,-2.3137,-2.3128,-2.3112,-2.3111,-2.3097,-2.3081,-2.3073,-2.3071,-2.3058,-2.3064,-2.3065,-2.3066,-2.3069,-2.3019,-2.3069,-2.3069,-2.3069,-2.3069,-2.3069,0,-2.3242,-2.3231,-2.3228,-2.3216,-2.3214,-2.3194,-2.3183,-2.3182,-2.3181,-2.317,-2.3165,-2.3161,-2.3156,-2.3136,-2.3128,-2.313,-2.312,-2.3129,-2.3128,-2.3126,-2.3082,-2.3079,-2.3137,-2.3137,-2.3137,-2.3137,-2.3137,-2.3137,-2.3272,-2.328,-2.3266,-2.3268,-2.3257,-2.3255,-2.325,-2.3243,-2.3233,-2.323,-2.3225,-2.3212,-2.3197,-2.3188,-2.3182,-2.3176,-2.3174,-2.3186,-2.3177,-2.3136,-2.3129,-2.3123,-2.312,-2.3186,-2.3186,-2.322,-2.3221,-2.3221]}]]